Maersk Iowa — KABL — position and weather

sailwx.info

Track history (hours):
 
Tides and Currents Weather Stations Pressure Air Temp Water Temp Dewpoint Dewpoint Depression Visibility Wind Speed Wind Dir Waves Ship Positions

Maersk Iowa

Owner: FARRELL LINES INC, Norfolk, VA. More information available from US FCC via Universal Licensing System and Coast Guard Vessel Documentation Center.

Last reported at 2014-Oct-22 13:31 UTC. Time now 2014-Oct-22 13:51 UTC.
Position N 29°19' W 094°47'.

Length 292 m; draft 9.6 m.

Type: Ship (hazmat cat A). MMSI: 367606000.

Date/timePositionNaut miles runAvg speedWind from/ knotsBaromVisibWave heightAir tempDewpointWater temp
2014-Oct-22 13:31N 29°19' W 094°47'0 0.0
2014-Oct-22 10:25N 29°19' W 094°47'0 0.0
2014-Oct-22 09:24N 29°19' W 094°47'2 1.8
2014-Oct-22 08:33N 29°20' W 094°46'5 4.6
2014-Oct-22 07:28N 29°25' W 094°49'1213.3
2014-Oct-22 06:33N 29°35' W 094°56'7 6.8
2014-Oct-22 05:33N 29°41' W 095°00'0 0.0
2014-Oct-22 04:32N 29°41' W 095°00'0 0.0
2014-Oct-22 03:32N 29°41' W 095°00'0 0.0
2014-Oct-22 02:32N 29°41' W 095°00'0 0.0
2014-Oct-22 01:32N 29°41' W 095°00'0 0.0
2014-Oct-22 00:29N 29°41' W 095°00'0 0.0
2014-Oct-21 23:29N 29°41' W 095°00'0 0.0
2014-Oct-21 22:32N 29°41' W 095°00'0 0.0
2014-Oct-21 21:32N 29°41' W 095°00'0 0.0
2014-Oct-21 20:32N 29°41' W 095°00'0 0.0
2014-Oct-21 19:32N 29°41' W 095°00'0 0.0
2014-Oct-21 18:32N 29°41' W 095°00'0 0.0
2014-Oct-21 17:32N 29°41' W 095°00'0 0.0
2014-Oct-21 16:32N 29°41' W 095°00'0 0.0
2014-Oct-21 15:29N 29°41' W 095°00'0 0.0
2014-Oct-21 14:29N 29°41' W 095°00'0 0.0
2014-Oct-21 13:32N 29°41' W 095°00'0 0.0
2014-Oct-21 12:32N 29°41' W 095°00'5 4.7
2014-Oct-21 11:33N 29°37' W 094°57'1211.7
2014-Oct-21 10:33N 29°27' W 094°51'1211.7
2014-Oct-21 09:34N 29°20' W 094°40'11 7.3
2014-Oct-21 08:04N 29°14' W 094°30'21626.7
2014-Oct-21 00:00N 26°00' W 092°42'11619.3 050 / 151013.510.8 1.527.019.328.0
2014-Oct-20 18:00N 27°18' W 091°06'20817.4 100 / 121014.510.8 1.028.018.729.0
2014-Oct-20 06:00N 26°00' W 087°30'40414.2 090 / 101015.010.8 1.525.017.029.6
2014-Oct-19 01:34N 25°44' W 080°02'1515.1
2014-Oct-19 00:33N 25°59' W 080°01'1514.8
2014-Oct-18 23:33N 26°13' W 080°01'1615.6
2014-Oct-18 22:33N 26°29' W 080°00'1515.1
2014-Oct-18 21:33N 26°44' W 079°59'1414.2
2014-Oct-18 20:33N 26°58' W 079°59'3814.7
2014-Oct-18 18:00N 27°36' W 080°00'21117.6 330 / 101014.010.8 1.029.519.728.7
2014-Oct-18 06:00N 31°06' W 080°24'6215.8 270 / 121012.510.8 1.523.014.626.5
2014-Oct-18 02:04N 32°02' W 080°55'612.5
2014-Oct-18 01:34N 32°06' W 081°01'6 6.0
2014-Oct-18 00:29N 32°07' W 081°08'1 0.9
2014-Oct-17 23:16N 32°08' W 081°09'0 0.0
2014-Oct-17 22:22N 32°08' W 081°09'0 0.0
2014-Oct-17 21:10N 32°08' W 081°09'0 0.0
2014-Oct-17 20:28N 32°08' W 081°09'0 0.0
2014-Oct-17 19:19N 32°08' W 081°09'0 0.0
2014-Oct-17 17:28N 32°08' W 081°09'0 0.0
2014-Oct-17 16:28N 32°08' W 081°09'0 0.0
2014-Oct-17 11:30N 32°08' W 081°09'3 2.8
2014-Oct-17 10:33N 32°06' W 081°07'4 4.2
2014-Oct-17 09:33N 32°05' W 081°02'7 7.0
2014-Oct-17 08:33N 32°02' W 080°54'  
2014-Oct-15 03:33N 36°46' W 075°42'1414.1
2014-Oct-15 02:33N 36°55' W 075°56'1413.5
2014-Oct-15 01:33N 36°60' W 076°12'9 9.3
2014-Oct-15 00:32N 36°53' W 076°20'1 0.2
2014-Oct-14 21:09N 36°52' W 076°21'0 0.0
2014-Oct-14 20:06N 36°52' W 076°21'0 0.0
2014-Oct-14 19:24N 36°52' W 076°21'0 0.0
2014-Oct-14 12:18N 36°52' W 076°21'3 3.8
2014-Oct-14 11:33N 36°55' W 076°20'5 4.7
2014-Oct-14 10:31N 36°60' W 076°18'4 4.4
2014-Oct-14 09:31N 37°00' W 076°13'1212.0
2014-Oct-14 08:34N 36°57' W 075°59'7 6.3
2014-Oct-14 07:31N 36°53' W 075°52'7 7.4
2014-Oct-14 06:33N 36°49' W 075°44'13210.5
2014-Oct-13 18:00N 38°36' W 074°06'6213.0 130 / 161025.010.8 2.020.014.920.3
2014-Oct-13 13:15N 39°37' W 073°53'1013.0
2014-Oct-13 12:29N 39°47' W 073°52'1413.2
2014-Oct-13 11:27N 40°00' W 073°51'1213.3
2014-Oct-13 10:32N 40°13' W 073°50'1313.1
2014-Oct-13 09:30N 40°26' W 073°49'1313.9
2014-Oct-13 08:33N 40°35' W 074°02'7 6.3
2014-Oct-13 07:28N 40°40' W 074°09'0 0.1
2014-Oct-13 06:25N 40°40' W 074°09'0 0.0
2014-Oct-13 05:28N 40°40' W 074°09'0 0.0
2014-Oct-13 04:28N 40°40' W 074°09'0 0.0
2014-Oct-13 03:22N 40°40' W 074°09'0 0.0
2014-Oct-13 01:31N 40°40' W 074°09'0 0.0
2014-Oct-13 00:07N 40°40' W 074°09'0 0.0
2014-Oct-12 23:28N 40°40' W 074°09'0 0.0
2014-Oct-12 21:32N 40°40' W 074°09'3 3.4
2014-Oct-12 20:33N 40°39' W 074°04'7011.7
2014-Oct-12 14:33N 40°31' W 072°33'1615.8
2014-Oct-12 13:33N 40°31' W 072°12'  
Track history (hours):
 
Tides and Currents Weather Stations Pressure Air Temp Water Temp Dewpoint Dewpoint Depression Visibility Wind Speed Wind Dir Waves Ship Positions

Maersk Iowa

Owner: FARRELL LINES INC, Norfolk, VA. More information available from US FCC via Universal Licensing System and Coast Guard Vessel Documentation Center.

Last reported at 2014-Oct-22 13:31 UTC. Time now 2014-Oct-22 13:51 UTC.
Position N 29°19' W 094°47'.

Length 292 m; draft 9.6 m.

Type: Ship (hazmat cat A). MMSI: 367606000.

Date/timePositionNaut miles runAvg speedWind from/ knotsBaromVisibWave heightAir tempDewpointWater temp
2014-Oct-22 13:31N 29°19' W 094°47'0 0.0
2014-Oct-22 10:25N 29°19' W 094°47'0 0.0
2014-Oct-22 09:24N 29°19' W 094°47'2 1.8
2014-Oct-22 08:33N 29°20' W 094°46'5 4.6
2014-Oct-22 07:28N 29°25' W 094°49'1213.3
2014-Oct-22 06:33N 29°35' W 094°56'7 6.8
2014-Oct-22 05:33N 29°41' W 095°00'0 0.0
2014-Oct-22 04:32N 29°41' W 095°00'0 0.0
2014-Oct-22 03:32N 29°41' W 095°00'0 0.0
2014-Oct-22 02:32N 29°41' W 095°00'0 0.0
2014-Oct-22 01:32N 29°41' W 095°00'0 0.0
2014-Oct-22 00:29N 29°41' W 095°00'0 0.0
2014-Oct-21 23:29N 29°41' W 095°00'0 0.0
2014-Oct-21 22:32N 29°41' W 095°00'0 0.0
2014-Oct-21 21:32N 29°41' W 095°00'0 0.0
2014-Oct-21 20:32N 29°41' W 095°00'0 0.0
2014-Oct-21 19:32N 29°41' W 095°00'0 0.0
2014-Oct-21 18:32N 29°41' W 095°00'0 0.0
2014-Oct-21 17:32N 29°41' W 095°00'0 0.0
2014-Oct-21 16:32N 29°41' W 095°00'0 0.0
2014-Oct-21 15:29N 29°41' W 095°00'0 0.0
2014-Oct-21 14:29N 29°41' W 095°00'0 0.0
2014-Oct-21 13:32N 29°41' W 095°00'0 0.0
2014-Oct-21 12:32N 29°41' W 095°00'5 4.7
2014-Oct-21 11:33N 29°37' W 094°57'1211.7
2014-Oct-21 10:33N 29°27' W 094°51'1211.7
2014-Oct-21 09:34N 29°20' W 094°40'11 7.3
2014-Oct-21 08:04N 29°14' W 094°30'21626.7
2014-Oct-21 00:00N 26°00' W 092°42'11619.3 050 / 151013.510.8 1.527.019.328.0
2014-Oct-20 18:00N 27°18' W 091°06'20817.4 100 / 121014.510.8 1.028.018.729.0
2014-Oct-20 06:00N 26°00' W 087°30'40414.2 090 / 101015.010.8 1.525.017.029.6
2014-Oct-19 01:34N 25°44' W 080°02'1515.1
2014-Oct-19 00:33N 25°59' W 080°01'1514.8
2014-Oct-18 23:33N 26°13' W 080°01'1615.6
2014-Oct-18 22:33N 26°29' W 080°00'1515.1
2014-Oct-18 21:33N 26°44' W 079°59'1414.2
2014-Oct-18 20:33N 26°58' W 079°59'3814.7
2014-Oct-18 18:00N 27°36' W 080°00'21117.6 330 / 101014.010.8 1.029.519.728.7
2014-Oct-18 06:00N 31°06' W 080°24'6215.8 270 / 121012.510.8 1.523.014.626.5
2014-Oct-18 02:04N 32°02' W 080°55'612.5
2014-Oct-18 01:34N 32°06' W 081°01'6 6.0
2014-Oct-18 00:29N 32°07' W 081°08'1 0.9
2014-Oct-17 23:16N 32°08' W 081°09'0 0.0
2014-Oct-17 22:22N 32°08' W 081°09'0 0.0
2014-Oct-17 21:10N 32°08' W 081°09'0 0.0
2014-Oct-17 20:28N 32°08' W 081°09'0 0.0
2014-Oct-17 19:19N 32°08' W 081°09'0 0.0
2014-Oct-17 17:28N 32°08' W 081°09'0 0.0
2014-Oct-17 16:28N 32°08' W 081°09'0 0.0
2014-Oct-17 11:30N 32°08' W 081°09'3 2.8
2014-Oct-17 10:33N 32°06' W 081°07'4 4.2
2014-Oct-17 09:33N 32°05' W 081°02'7 7.0
2014-Oct-17 08:33N 32°02' W 080°54'  
2014-Oct-15 03:33N 36°46' W 075°42'1414.1
2014-Oct-15 02:33N 36°55' W 075°56'1413.5
2014-Oct-15 01:33N 36°60' W 076°12'9 9.3
2014-Oct-15 00:32N 36°53' W 076°20'1 0.2
2014-Oct-14 21:09N 36°52' W 076°21'0 0.0
2014-Oct-14 20:06N 36°52' W 076°21'0 0.0
2014-Oct-14 19:24N 36°52' W 076°21'0 0.0
2014-Oct-14 12:18N 36°52' W 076°21'3 3.8
2014-Oct-14 11:33N 36°55' W 076°20'5 4.7
2014-Oct-14 10:31N 36°60' W 076°18'4 4.4
2014-Oct-14 09:31N 37°00' W 076°13'1212.0
2014-Oct-14 08:34N 36°57' W 075°59'7 6.3
2014-Oct-14 07:31N 36°53' W 075°52'7 7.4
2014-Oct-14 06:33N 36°49' W 075°44'13210.5
2014-Oct-13 18:00N 38°36' W 074°06'6213.0 130 / 161025.010.8 2.020.014.920.3
2014-Oct-13 13:15N 39°37' W 073°53'1013.0
2014-Oct-13 12:29N 39°47' W 073°52'1413.2
2014-Oct-13 11:27N 40°00' W 073°51'1213.3
2014-Oct-13 10:32N 40°13' W 073°50'1313.1
2014-Oct-13 09:30N 40°26' W 073°49'1313.9
2014-Oct-13 08:33N 40°35' W 074°02'7 6.3
2014-Oct-13 07:28N 40°40' W 074°09'0 0.1
2014-Oct-13 06:25N 40°40' W 074°09'0 0.0
2014-Oct-13 05:28N 40°40' W 074°09'0 0.0
2014-Oct-13 04:28N 40°40' W 074°09'0 0.0
2014-Oct-13 03:22N 40°40' W 074°09'0 0.0
2014-Oct-13 01:31N 40°40' W 074°09'0 0.0
2014-Oct-13 00:07N 40°40' W 074°09'0 0.0
2014-Oct-12 23:28N 40°40' W 074°09'0 0.0
2014-Oct-12 21:32N 40°40' W 074°09'3 3.4
2014-Oct-12 20:33N 40°39' W 074°04'7011.7
2014-Oct-12 14:33N 40°31' W 072°33'1615.8
2014-Oct-12 13:33N 40°31' W 072°12'  

Dump ship's entire track history